National Weather Service United States Department of Commerce

Latest Hourly Weather Roundup

TOPSWRTT 000
TTAA00 KICT 192112

Wichita AWIPS Roundup
National Weather Service Wichita KS
300 PM CST MON FEB 19 2018

....Central Kansas....
  
CITY           SKY/WX    TMP DP  RH WIND       PRES   REMARKS
RUSSELL        CLOUDY    28  18  66 N13       29.80S WCI  17          
SALINA         CLOUDY    31  20  63 N13       29.83S WCI  21          
GREAT BEND     PTSUNNY   34  18  52 N13G22    29.78F WCI  25          
ELLSWORTH      PTSUNNY   30  18  59 NW9       29.80F WCI  22          
MCPHERSON      CLOUDY    30  21  69 N10       29.82R WCI  21          
HAYS           CLOUDY    27  16  63 N12       29.79F WCI  17          

....South Central Kansas....
  
CITY           SKY/WX    TMP DP  RH WIND       PRES   REMARKS
HUTCHINSON     CLOUDY    30  23  75 NW10      29.80S WCI  21          
NEWTON         CLOUDY    28  25  88 N10       29.80S WCI  19          
KINGMAN        CLOUDY    34  25  69 N12       29.79F WCI  25          
WICHITA (ICT)  CLOUDY    32  25  75 N14       29.80S WCI  22          
JABARA ARPT    CLOUDY    29  26  89 N12       29.79S WCI  19          
BEECH ARPT     CLOUDY    30  25  83 N9        29.80S WCI  21          
MCCONNELL AFB  CLOUDY    31  25  79 N13       29.79S WCI  21          
BENTON         CLOUDY    29  25  85 N13       29.80F WCI  19          
EL DORADO      CLOUDY    32  30  93 N14       29.79S WCI  22          
AUGUSTA        CLOUDY    30  28  93 N13       29.80S WCI  20          
HARPER           N/A     34  23  64 CALM      29.81F                  
WELLINGTON     CLOUDY    34  28  80 N13       29.78F WCI  25          
WINFIELD       CLOUDY    34  31  88 N13       29.80R WCI  25          
 
....Southeast Kansas....
  
CITY           SKY/WX    TMP DP  RH WIND       PRES   REMARKS
EUREKA         NOT AVBL                                               
IOLA             N/A     39  39 100 NW8       29.77S WCI  34          
CHANUTE        LGT RAIN  40  39  97 N9        29.76S FOG     WCI  34  
PARSONS        LGT RAIN  42  42 100 NW13      29.76R FOG     WCI  35  
COFFEYVILLE    LGT RAIN  44  43  96 NW15      29.76R FOG     WCI  37  
INDEPENDENCE   LGT RAIN  41  40  95 N13       29.76S FOG     WCI  34  
FORT SCOTT     NOT AVBL                                               
PITTSBURG      DRIZZLE   66  65  97 S17G23    29.71R                  

....Western Kansas....
  
CITY           SKY/WX    TMP DP  RH WIND       PRES   REMARKS
GOODLAND       CLOUDY    18  12  77 N9        29.69F WCI   7          
HILL CITY      CLOUDY    22  15  75 N12       29.80F WCI  10          
LIBERAL        CLOUDY    36  20  52 NE6       29.72F WCI  31          
GARDEN CITY    CLOUDY    30  16  56 E8        29.70F WCI  22          
DODGE CITY     CLOUDY    33  17  51 NE7       29.74F WCI  27          
PRATT          CLOUDY    34  19  54 N10       29.78S WCI  26          
MEDICINE LODGE   N/A     35  24  64 N13       29.78F WCI  26          

....Northeast Kansas....
  
CITY           SKY/WX    TMP DP  RH WIND       PRES   REMARKS
CONCORDIA      CLOUDY    24  17  74 N13       29.82S WCI  12          
TOPEKA         CLOUDY    34  29  82 NW10      29.80R WCI  26          
MANHATTAN      CLOUDY    31  22  69 N6        29.82F WCI  25          
LAWRENCE       CLOUDY    34  31  88 NW10      29.80R WCI  26          
OLATHE         CLOUDY    35  32  88 N12       29.76S WCI  27          
EMPORIA        CLOUDY    31  27  85 NW13      29.80R WCI  21          

....Oklahoma....
  
CITY           SKY/WX    TMP DP  RH WIND       PRES   REMARKS
GAGE           SUNNY     49  28  44 E10       29.71F                  
PONCA CITY     CLOUDY    38  33  82 N13       29.78R WCI  30          
BARTLESVILLE   LGT RAIN  47  44  90 N8        29.76R FOG              
TULSA          CLOUDY    72  63  73 S20G28    29.71R                  
OKLAHOMA CITY  LGT RAIN  52  43  71 N18       29.72R                  

Note: "fair" indicates few or no clouds below 12,000 feet with no
significant weather and/or obstructions to visibility.